Regional Weather Roundup
Issued by NWS

Home | Current Version | Previous Version | Text Only | Print | Product List | Glossary On
Versions: 1 2 3 4 5 6 7 8 9 10 11 12 13 14 15 16 17 18 19 20 21 22 23 24 25 26 27 28 29 30 31 32 33 34 35 36 37 38 39 40 41 42 43 44 45 46 47 48 49 50
000
ASUS45 KBOU 201910
RWRCO

WEATHER ROUNDUP FOR COLORADO
NATIONAL WEATHER SERVICE DENVER/BOULDER CO
100 PM MDT SUN MAY 20 2018

NOTE: "FAIR" INDICATES FEW OR NO CLOUDS BELOW 12000 FEET WITH NO
SIGNIFICANT WEATHER AND/OR OBSTRUCTIONS TO VISIBILITY.

COZ001>005-013-030-031-202000-
...NORTHWEST COLORADO...

CITY           SKY/WX    TMP DP  RH WIND       PRES   REMARKS
CRAIG          FAIR      67  44  43 VRB7      30.09F
HAYDEN         FAIR      63  44  50 VRB5      30.11F
MEEKER         PTSUNNY   67  38  34 SW21      30.10F THUNDER
RANGELY        MOCLDY    68  35  28 CALM      30.03F
RABBIT EARS PA FAIR      50  34  53 W6        30.30F
STEAMBOAT SPGS FAIR      62  39  41 CALM      30.11F
WALDEN         FAIR      59  30  33 CALM      30.17F
$$

COZ006>008-011-202000-
...WEST CENTRAL VALLEYS...

CITY           SKY/WX    TMP DP  RH WIND       PRES   REMARKS
GRAND JUNCTION FAIR      76  38  25 MISG      29.96F
MONTROSE       FAIR      68  31  25 SW8G17    30.04F
EAGLE          FAIR      70  31  23 VRB3      30.07F
RIFLE          FAIR      75  27  17 NE3       30.01F
DELTA          FAIR      76  33  20 S6        29.99F
NUCLA          PTSUNNY   70  18  13 W10G32    30.10R
$$

COZ017>023-064>068-202000-
...SOUTHWEST COLORADO...

CITY           SKY/WX    TMP DP  RH WIND       PRES   REMARKS
DURANGO        FAIR      72  28  19 S14G22    30.11F
CORTEZ         FAIR      73  25  16 S17G29    30.06F
PAGOSA SPRINGS FAIR      67  22  18 S9G18     30.19F
TELLURIDE      CLOUDY    58  23  26 SW13G37   30.23S
WOLF CREEK PAS PTSUNNY   41  28  60 SW14G25   30.44F
$$

COZ009-010-012-014-032>034-037-058>063-202000-
...CENTRAL COLORADO...

CITY           SKY/WX    TMP DP  RH WIND       PRES   REMARKS
ASPEN          FAIR      66  23  19 N8        30.11F
BUENA VISTA    FAIR      58  39  50 SE5       30.19F
COPPER MTN     CLOUDY    45  25  45 W9        30.38F
BERTHOUD PASS  CLOUDY    37  28  70 NW14G24   30.40R
COTTONWOOD PAS FAIR      61  41  48 SE6       30.28F
GUNNISON       FAIR      64  29  26 VRB3      30.13F
GRANBY         FAIR      63  33  32 W8G16     30.17F
KREMMLING      FAIR      73  30  20 CALM      30.12F
LEADVILLE      FAIR      55  26  32 NW5       30.24F
MONARCH PASS   CLOUDY    41  21  45 MISG      30.50S
SALIDA         FAIR      60  37  43 CALM      30.25F
SUNLIGHT       CLOUDY    48  30  49 NW5       30.34F THUNDER
WILKERSON PASS FAIR      45  39  81 SW6       30.39F
$$

COZ069>075-202000-
...SAN LUIS VALLEY/SANGRE DE CRISTO MOUNTAINS...

CITY           SKY/WX    TMP DP  RH WIND       PRES   REMARKS
ALAMOSA        FAIR      65  35  33 VRB6      30.16F
DEL NORTE      PTSUNNY   58  36  43 SE12      30.19F
LA VETA PASS   PTSUNNY   45  39  81 N6        30.44S HAZE
SAGUACHE       NOT AVBL
$$

COZ035-036-038>040-202000-
...NORTHERN COLORADO FRONT RANGE...

CITY           SKY/WX    TMP DP  RH WIND       PRES   REMARKS
DENVER INTL AP CLOUDY    54  41  61 NE7       30.19F
AURORA         CLOUDY    53  44  71 NE10      30.19F
FRONT RANGE AP CLOUDY    55  43  62 SE6       30.20F
ERIE MUNI ARPT CLOUDY    52  42  69 CALM      30.25F
BOULDER MUN AP CLOUDY    48  45  87 CALM      30.20F
CENTENNIAL     CLOUDY    52  43  71 NE8       30.19F
BROOMFIELD     CLOUDY    50  43  76 N6        30.20F
FORT COLLINS   CLOUDY    52  42  69 SE6       30.20F
LONGMONT       CLOUDY    54  44  67 CALM      30.21F
$$

COZ041-046-047-076>085-087-088-202000-
...PIKES PEAK/PALMER DIVIDE AND SOUTHERN FOOTHILLS...

CITY           SKY/WX    TMP DP  RH WIND       PRES   REMARKS
COLO. SPRINGS  CLOUDY    50  43  77 S9        30.22F
A. F. ACADEMY  CLOUDY    47  42  81 SE10      30.21F
SCHRIEVER AFB  NOT AVBL
CHEYENNE MTN   DRZL/FOG  43  43  99 SE13      30.17F VSB 1
ELLICOTT         N/A    N/A N/A N/A SW7       30.21F
FALCON         CLOUDY    46  41  81 S8        30.24F
FORT CARSON    CLOUDY    51  42  71 SW7       30.20F
LIMON          CLOUDY    55  39  54 S5        30.20F
MONUMENT HILL  CLOUDY    52  41  66 S12       30.23F
CANON CITY     CLOUDY    61  45  55 E7        30.19F
WALSENBURG     CLOUDY    57  46  67 SE3       30.20F
TRINIDAD       FAIR      58  46  64 VRB7      30.19F
$$

COZ042>045-048>051-090-091-202000-
...NORTHEAST COLORADO...

CITY           SKY/WX    TMP DP  RH WIND       PRES   REMARKS
GREELEY ARPT   PTSUNNY   57  43  58 VRB3      30.20F
AKRON          PTSUNNY   55  42  61 CALM      30.20F
BURLINGTON     FAIR      60  43  53 N9G16     30.20S
WRAY           CLOUDY    61  43  51 NE7       30.19F
YUMA           FAIR      55  27  33 E6        30.19F
STERLING       FAIR      59  43  55 E5        30.18F
HOLYOKE        FAIR      61  43  51 NE10G16   30.19F
FORT MORGAN    PTSUNNY   58  40  50 CALM      30.20F
$$

COZ086-089-092>099-202000-
...SOUTHEAST COLORADO...

CITY           SKY/WX    TMP DP  RH WIND       PRES   REMARKS
PUEBLO         CLOUDY    59  42  53 VRB7      30.18F
LA JUNTA       FAIR      62  42  47 NE5       30.19F
LAMAR          FAIR      65  42  43 NE8       30.17F
SPRINGFIELD      N/A     62  43  49 E6        30.18F
$$



USA.gov is the U.S. government's official web portal to all federal, state and local government web resources and services.